Year,Month,Day,Hour,Minute,Value (Times are PST for temperature in C)
2015,06,29,00,00,17.10
2015,06,29,00,01,17.10
2015,06,29,00,02,17.10
2015,06,29,00,03,17.10
2015,06,29,00,04,17.20
2015,06,29,00,05,17.20
2015,06,29,00,06,17.20
2015,06,29,00,07,17.20
2015,06,29,00,08,17.20
2015,06,29,00,09,17.30
2015,06,29,00,10,17.30
2015,06,29,00,11,17.30
2015,06,29,00,12,17.40
2015,06,29,00,13,17.40
2015,06,29,00,14,17.40
2015,06,29,00,15,17.40
2015,06,29,00,16,17.40
2015,06,29,00,17,17.50
2015,06,29,00,18,17.50
2015,06,29,00,19,17.60
2015,06,29,00,20,17.60
2015,06,29,00,21,17.60
2015,06,29,00,22,17.70
2015,06,29,00,23,17.70
2015,06,29,00,24,17.70
2015,06,29,00,25,17.70
2015,06,29,00,26,17.80
2015,06,29,00,27,17.80
2015,06,29,00,28,17.80
2015,06,29,00,29,17.80
2015,06,29,00,30,17.80
2015,06,29,00,31,17.90
2015,06,29,00,32,17.90
2015,06,29,00,33,17.90
2015,06,29,00,34,17.90
2015,06,29,00,35,17.90
2015,06,29,00,36,18.00
2015,06,29,00,37,18.00
2015,06,29,00,38,18.00
2015,06,29,00,39,18.00
2015,06,29,00,40,18.10
2015,06,29,00,41,18.10
2015,06,29,00,42,18.10
2015,06,29,00,43,18.10
2015,06,29,00,44,18.10
2015,06,29,00,45,18.10
2015,06,29,00,46,18.10
2015,06,29,00,47,18.20
2015,06,29,00,48,18.20
2015,06,29,00,49,18.20
2015,06,29,00,50,18.20
2015,06,29,00,51,18.20
2015,06,29,00,52,18.30
2015,06,29,00,53,18.30
2015,06,29,00,54,18.30
2015,06,29,00,55,18.30
2015,06,29,00,56,18.30
2015,06,29,00,57,18.30
2015,06,29,00,58,18.30
2015,06,29,00,59,18.30
2015,06,29,01,00,18.30
2015,06,29,01,01,18.30
2015,06,29,01,02,18.40
2015,06,29,01,03,18.40
2015,06,29,01,04,18.40
2015,06,29,01,05,18.40
2015,06,29,01,06,18.50
2015,06,29,01,07,18.40
2015,06,29,01,08,18.40
2015,06,29,01,09,18.40
2015,06,29,01,10,18.40
2015,06,29,01,11,18.30
2015,06,29,01,12,18.30
2015,06,29,01,13,18.30
2015,06,29,01,14,18.30
2015,06,29,01,15,18.30
2015,06,29,01,16,18.30
2015,06,29,01,17,18.40
2015,06,29,01,18,18.40
2015,06,29,01,19,18.40
2015,06,29,01,20,18.40
2015,06,29,01,21,18.50
2015,06,29,01,22,18.50
2015,06,29,01,23,18.50
2015,06,29,01,24,18.50
2015,06,29,01,25,18.60
2015,06,29,01,26,18.60
2015,06,29,01,27,18.60
2015,06,29,01,28,18.60
2015,06,29,01,29,18.60
2015,06,29,01,30,18.60
2015,06,29,01,31,18.60
2015,06,29,01,32,18.60
2015,06,29,01,33,18.60
2015,06,29,01,34,18.60
2015,06,29,01,35,18.50
2015,06,29,01,36,18.50
2015,06,29,01,37,18.50
2015,06,29,01,38,18.50
2015,06,29,01,39,18.50
2015,06,29,01,40,18.40
2015,06,29,01,41,18.30
2015,06,29,01,42,18.20
2015,06,29,01,43,18.10
2015,06,29,01,44,18.00
2015,06,29,01,45,18.00
2015,06,29,01,46,17.90
2015,06,29,01,47,17.90
2015,06,29,01,48,17.80
2015,06,29,01,49,17.80
2015,06,29,01,50,17.80
2015,06,29,01,51,17.70
2015,06,29,01,52,17.70
2015,06,29,01,53,17.70
2015,06,29,01,54,17.70
2015,06,29,01,55,17.60
2015,06,29,01,56,17.60
2015,06,29,01,57,17.60
2015,06,29,01,58,17.50
2015,06,29,01,59,17.50
2015,06,29,02,00,17.50
2015,06,29,02,01,17.40
2015,06,29,02,02,17.40
2015,06,29,02,03,17.40
2015,06,29,02,04,17.30
2015,06,29,02,05,17.30
2015,06,29,02,06,17.20
2015,06,29,02,07,17.20
2015,06,29,02,08,17.20
2015,06,29,02,09,17.20
2015,06,29,02,10,17.20
2015,06,29,02,11,17.20
2015,06,29,02,12,17.20
2015,06,29,02,13,17.20
2015,06,29,02,14,17.20
2015,06,29,02,15,17.10
2015,06,29,02,16,17.10
2015,06,29,02,17,17.10
2015,06,29,02,18,17.10
2015,06,29,02,19,17.20
2015,06,29,02,20,17.20
2015,06,29,02,21,17.20
2015,06,29,02,22,17.20
2015,06,29,02,23,17.20
2015,06,29,02,24,17.30
2015,06,29,02,25,17.30
2015,06,29,02,26,17.30
2015,06,29,02,27,17.40
2015,06,29,02,28,17.50
2015,06,29,02,29,17.60
2015,06,29,02,30,17.60
2015,06,29,02,31,17.70
2015,06,29,02,32,17.70
2015,06,29,02,33,17.70
2015,06,29,02,34,17.80
2015,06,29,02,35,17.80
2015,06,29,02,36,17.80
2015,06,29,02,37,17.80
2015,06,29,02,38,17.80
2015,06,29,02,39,17.80
2015,06,29,02,40,17.90
2015,06,29,02,41,17.90
2015,06,29,02,42,17.90
2015,06,29,02,43,18.00
2015,06,29,02,44,18.00
2015,06,29,02,45,18.00
2015,06,29,02,46,18.10
2015,06,29,02,47,18.10
2015,06,29,02,48,18.10
2015,06,29,02,49,18.10
2015,06,29,02,50,18.20
2015,06,29,02,51,18.20
2015,06,29,02,52,18.20
2015,06,29,02,53,18.20
2015,06,29,02,54,18.20
2015,06,29,02,55,18.20
2015,06,29,02,56,18.20
2015,06,29,02,57,18.20
2015,06,29,02,58,18.30
2015,06,29,02,59,18.30
2015,06,29,03,00,18.30
2015,06,29,03,01,18.40
2015,06,29,03,02,18.50
2015,06,29,03,03,18.60
2015,06,29,03,04,18.80
2015,06,29,03,05,18.90
2015,06,29,03,06,18.90
2015,06,29,03,07,19.10
2015,06,29,03,08,19.10
2015,06,29,03,09,19.20
2015,06,29,03,10,19.30
2015,06,29,03,11,19.40
2015,06,29,03,12,19.40
2015,06,29,03,13,19.50
2015,06,29,03,14,19.60
2015,06,29,03,15,19.60
2015,06,29,03,16,19.60
2015,06,29,03,17,19.60
2015,06,29,03,18,19.60
2015,06,29,03,19,19.60
2015,06,29,03,20,19.60
2015,06,29,03,21,19.60
2015,06,29,03,22,19.60
2015,06,29,03,23,19.50
2015,06,29,03,24,19.50
2015,06,29,03,25,19.50
2015,06,29,03,26,19.40
2015,06,29,03,27,19.40
2015,06,29,03,28,19.30
2015,06,29,03,29,19.30
2015,06,29,03,30,19.20
2015,06,29,03,31,19.20
2015,06,29,03,32,19.20
2015,06,29,03,33,19.10
2015,06,29,03,34,19.10
2015,06,29,03,35,19.00
2015,06,29,03,36,18.90
2015,06,29,03,37,18.90
2015,06,29,03,38,18.80
2015,06,29,03,39,18.80
2015,06,29,03,40,18.70
2015,06,29,03,41,18.70
2015,06,29,03,42,18.60
2015,06,29,03,43,18.60
2015,06,29,03,44,18.60
2015,06,29,03,45,18.60
2015,06,29,03,46,18.60
2015,06,29,03,47,18.50
2015,06,29,03,48,18.50
2015,06,29,03,49,18.50
2015,06,29,03,50,18.50
2015,06,29,03,51,18.50
2015,06,29,03,52,18.50
2015,06,29,03,53,18.50
2015,06,29,03,54,18.50
2015,06,29,03,55,18.50
2015,06,29,03,56,18.50
2015,06,29,03,57,18.50
2015,06,29,03,58,18.50
2015,06,29,03,59,18.50
2015,06,29,04,00,18.50
2015,06,29,04,01,18.50
2015,06,29,04,02,18.50
2015,06,29,04,03,18.50
2015,06,29,04,04,18.50
2015,06,29,04,05,18.50
2015,06,29,04,06,18.60
2015,06,29,04,07,18.50
2015,06,29,04,08,18.50
2015,06,29,04,09,18.40
2015,06,29,04,10,18.40
2015,06,29,04,11,18.30
2015,06,29,04,12,18.20
2015,06,29,04,13,18.10
2015,06,29,04,14,18.10
2015,06,29,04,15,18.00
2015,06,29,04,16,17.90
2015,06,29,04,17,17.90
2015,06,29,04,18,17.80
2015,06,29,04,19,17.80
2015,06,29,04,20,17.70
2015,06,29,04,21,17.70
2015,06,29,04,22,17.70
2015,06,29,04,23,17.70
2015,06,29,04,24,17.80
2015,06,29,04,25,17.80
2015,06,29,04,26,17.80
2015,06,29,04,27,17.90
2015,06,29,04,28,17.90
2015,06,29,04,29,18.00
2015,06,29,04,30,18.00
2015,06,29,04,31,18.00
2015,06,29,04,32,18.10
2015,06,29,04,33,18.10
2015,06,29,04,34,18.20
2015,06,29,04,35,18.20
2015,06,29,04,36,18.30
2015,06,29,04,37,18.30
2015,06,29,04,38,18.30
2015,06,29,04,39,18.30
2015,06,29,04,40,18.30
2015,06,29,04,41,18.30
2015,06,29,04,42,18.30
2015,06,29,04,43,18.30
2015,06,29,04,44,18.30
2015,06,29,04,45,18.30
2015,06,29,04,46,18.30
2015,06,29,04,47,18.30
2015,06,29,04,48,18.30
2015,06,29,04,49,18.30
2015,06,29,04,50,18.30
2015,06,29,04,51,18.30
2015,06,29,04,52,18.30
2015,06,29,04,53,18.30
2015,06,29,04,54,18.30
2015,06,29,04,55,18.30
2015,06,29,04,56,18.30
2015,06,29,04,57,18.20
2015,06,29,04,58,18.20
2015,06,29,04,59,18.20
2015,06,29,05,00,18.20
2015,06,29,05,01,18.20
2015,06,29,05,02,18.20
2015,06,29,05,03,18.30
2015,06,29,05,04,18.30
2015,06,29,05,05,18.30
2015,06,29,05,06,18.30
2015,06,29,05,07,18.40
2015,06,29,05,08,18.40
2015,06,29,05,09,18.40
2015,06,29,05,10,18.40
2015,06,29,05,11,18.40
2015,06,29,05,12,18.40
2015,06,29,05,13,18.50
2015,06,29,05,14,18.50
2015,06,29,05,15,18.50
2015,06,29,05,16,18.50
2015,06,29,05,17,18.50
2015,06,29,05,18,18.50
2015,06,29,05,19,18.50
2015,06,29,05,20,18.50
2015,06,29,05,21,18.50
2015,06,29,05,22,18.40
2015,06,29,05,23,18.40
2015,06,29,05,24,18.40
2015,06,29,05,25,18.40
2015,06,29,05,26,18.40
2015,06,29,05,27,18.40
2015,06,29,05,28,18.40
2015,06,29,05,29,18.40
2015,06,29,05,30,18.40
2015,06,29,05,31,18.40
2015,06,29,05,32,18.40
2015,06,29,05,33,18.40
2015,06,29,05,34,18.40
2015,06,29,05,35,18.40
2015,06,29,05,36,18.40
2015,06,29,05,37,18.40
2015,06,29,05,38,18.40
2015,06,29,05,39,18.40
2015,06,29,05,40,18.40
2015,06,29,05,41,18.40
2015,06,29,05,42,18.40
2015,06,29,05,43,18.40
2015,06,29,05,44,18.40
2015,06,29,05,45,18.40
2015,06,29,05,46,18.40
2015,06,29,05,47,18.40
2015,06,29,05,48,18.40
2015,06,29,05,49,18.40
2015,06,29,05,50,18.40
2015,06,29,05,51,18.40
2015,06,29,05,52,18.40
2015,06,29,05,53,18.40
2015,06,29,05,54,18.40
2015,06,29,05,55,18.40
2015,06,29,05,56,18.40
2015,06,29,05,57,18.40
2015,06,29,05,58,18.40
2015,06,29,05,59,18.40
2015,06,29,06,00,18.30
2015,06,29,06,01,18.30
2015,06,29,06,02,18.30
2015,06,29,06,03,18.30
2015,06,29,06,04,18.30
2015,06,29,06,05,18.30
2015,06,29,06,06,18.30
2015,06,29,06,07,18.20
2015,06,29,06,08,18.20
2015,06,29,06,09,18.20
2015,06,29,06,10,18.20
2015,06,29,06,11,18.20
2015,06,29,06,12,18.20
2015,06,29,06,13,18.20
2015,06,29,06,14,18.20
2015,06,29,06,15,18.20
2015,06,29,06,16,18.20
2015,06,29,06,17,18.20
2015,06,29,06,18,18.20
2015,06,29,06,19,18.20
2015,06,29,06,20,18.20
2015,06,29,06,21,18.30
2015,06,29,06,22,18.30
2015,06,29,06,23,18.20
2015,06,29,06,24,18.20
2015,06,29,06,25,18.20
2015,06,29,06,26,18.20
2015,06,29,06,27,18.20
2015,06,29,06,28,18.20
2015,06,29,06,29,18.20
2015,06,29,06,30,18.20
2015,06,29,06,31,18.20
2015,06,29,06,32,18.20
2015,06,29,06,33,18.20
2015,06,29,06,34,18.20
2015,06,29,06,35,18.20
2015,06,29,06,36,18.20
2015,06,29,06,37,18.20
2015,06,29,06,38,18.20
2015,06,29,06,39,18.20
2015,06,29,06,40,18.30
2015,06,29,06,41,18.30
2015,06,29,06,42,18.30
2015,06,29,06,43,18.30
2015,06,29,06,44,18.30
2015,06,29,06,45,18.30
2015,06,29,06,46,18.30
2015,06,29,06,47,18.30
2015,06,29,06,48,18.30
2015,06,29,06,49,18.40
2015,06,29,06,50,18.40
2015,06,29,06,51,18.40
2015,06,29,06,52,18.40
2015,06,29,06,53,18.40
2015,06,29,06,54,18.30
2015,06,29,06,55,18.30
2015,06,29,06,56,18.20
2015,06,29,06,57,18.10
2015,06,29,06,58,18.00
2015,06,29,06,59,18.00
2015,06,29,07,00,17.90
2015,06,29,07,01,17.90
2015,06,29,07,02,17.80
2015,06,29,07,03,17.80
2015,06,29,07,04,17.80
2015,06,29,07,05,17.90
2015,06,29,07,06,17.90
2015,06,29,07,07,17.90
2015,06,29,07,08,17.90
2015,06,29,07,09,17.90
2015,06,29,07,10,17.90
2015,06,29,07,11,17.80
2015,06,29,07,12,17.70
2015,06,29,07,13,17.60
2015,06,29,07,14,17.50
2015,06,29,07,15,17.40
2015,06,29,07,16,17.40
2015,06,29,07,17,17.30
2015,06,29,07,18,17.30
2015,06,29,07,19,17.30
2015,06,29,07,20,17.30
2015,06,29,07,21,17.20
2015,06,29,07,22,17.20
2015,06,29,07,23,17.20
2015,06,29,07,24,17.20
2015,06,29,07,25,17.20
2015,06,29,07,26,17.20
2015,06,29,07,27,17.20
2015,06,29,07,28,17.20
2015,06,29,07,29,17.20
2015,06,29,07,30,17.20
2015,06,29,07,31,17.30
2015,06,29,07,32,17.30
2015,06,29,07,33,17.30
2015,06,29,07,34,17.30
2015,06,29,07,35,17.30
2015,06,29,07,36,17.40
2015,06,29,07,37,17.40
2015,06,29,07,38,17.50
2015,06,29,07,39,17.50
2015,06,29,07,40,17.60
2015,06,29,07,41,17.60
2015,06,29,07,42,17.70
2015,06,29,07,43,17.70
2015,06,29,07,44,17.70
2015,06,29,07,45,17.80
2015,06,29,07,46,17.80
2015,06,29,07,47,17.90
2015,06,29,07,48,17.90
2015,06,29,07,49,18.00
2015,06,29,07,50,18.00
2015,06,29,07,51,18.10
2015,06,29,07,52,18.20
2015,06,29,07,53,18.20
2015,06,29,07,54,18.30
2015,06,29,07,55,18.30
2015,06,29,07,56,18.40
2015,06,29,07,57,18.50
2015,06,29,07,58,18.50
2015,06,29,07,59,18.70
2015,06,29,08,00,18.80
2015,06,29,08,01,18.90
2015,06,29,08,02,19.00
2015,06,29,08,03,19.20
2015,06,29,08,04,19.30
2015,06,29,08,05,19.50
2015,06,29,08,06,19.60
2015,06,29,08,07,19.70
2015,06,29,08,08,19.90
2015,06,29,08,09,20.00
2015,06,29,08,10,20.20
2015,06,29,08,11,20.30
2015,06,29,08,12,20.40
2015,06,29,08,13,20.50
2015,06,29,08,14,20.60
2015,06,29,08,15,20.60
2015,06,29,08,16,20.60
2015,06,29,08,17,20.70
2015,06,29,08,18,20.70
2015,06,29,08,19,20.70
2015,06,29,08,20,20.70
2015,06,29,08,21,20.70
2015,06,29,08,22,20.70
2015,06,29,08,23,20.70
2015,06,29,08,24,20.70
2015,06,29,08,25,20.70
2015,06,29,08,26,20.70
2015,06,29,08,27,20.60
2015,06,29,08,28,20.60
2015,06,29,08,29,20.50
2015,06,29,08,30,20.40
2015,06,29,08,31,20.40
2015,06,29,08,32,20.20
2015,06,29,08,33,20.00
2015,06,29,08,34,19.70
2015,06,29,08,35,19.50
2015,06,29,08,36,19.10
2015,06,29,08,37,18.80
2015,06,29,08,38,18.40
2015,06,29,08,39,18.10
2015,06,29,08,40,17.90
2015,06,29,08,41,17.70
2015,06,29,08,42,17.60
2015,06,29,08,43,17.50
2015,06,29,08,44,17.40
2015,06,29,08,45,17.30
2015,06,29,08,46,17.20
2015,06,29,08,47,17.20
2015,06,29,08,48,17.10
2015,06,29,08,49,17.10
2015,06,29,08,50,17.20
2015,06,29,08,51,17.20
2015,06,29,08,52,17.10
2015,06,29,08,53,16.90
2015,06,29,08,54,16.90
2015,06,29,08,55,16.90
2015,06,29,08,56,16.80
2015,06,29,08,57,16.80
2015,06,29,08,58,16.70
2015,06,29,08,59,16.70
2015,06,29,09,00,16.70
2015,06,29,09,01,16.80
2015,06,29,09,02,16.80
2015,06,29,09,03,16.90
2015,06,29,09,04,17.10
2015,06,29,09,05,17.20
2015,06,29,09,06,17.30
2015,06,29,09,07,17.50
2015,06,29,09,08,17.70
2015,06,29,09,09,17.90
2015,06,29,09,10,18.10
2015,06,29,09,11,18.20
2015,06,29,09,12,18.30
2015,06,29,09,13,18.50
2015,06,29,09,14,18.60
2015,06,29,09,15,18.70
2015,06,29,09,16,18.80
2015,06,29,09,17,18.80
2015,06,29,09,18,18.90
2015,06,29,09,19,18.80
2015,06,29,09,20,18.70
2015,06,29,09,21,18.50
2015,06,29,09,22,18.40
2015,06,29,09,23,18.30
2015,06,29,09,24,18.20
2015,06,29,09,25,18.10
2015,06,29,09,26,18.00
2015,06,29,09,27,17.90
2015,06,29,09,28,17.70
2015,06,29,09,29,17.60
2015,06,29,09,30,17.50
2015,06,29,09,31,17.40
2015,06,29,09,32,17.40
2015,06,29,09,33,17.50
2015,06,29,09,34,17.60
2015,06,29,09,35,17.60
2015,06,29,09,36,17.80
2015,06,29,09,37,17.90
2015,06,29,09,38,18.10
2015,06,29,09,39,18.30
2015,06,29,09,40,18.50
2015,06,29,09,41,18.70
2015,06,29,09,42,18.90
2015,06,29,09,43,19.10
2015,06,29,09,44,19.20
2015,06,29,09,45,19.20
2015,06,29,09,46,19.30
2015,06,29,09,47,19.50
2015,06,29,09,48,19.60
2015,06,29,09,49,19.70
2015,06,29,09,50,19.80
2015,06,29,09,51,19.90
2015,06,29,09,52,20.00
2015,06,29,09,53,20.10
2015,06,29,09,54,20.20
2015,06,29,09,55,20.30
2015,06,29,09,56,20.20
2015,06,29,09,57,20.00
2015,06,29,09,58,19.70
2015,06,29,09,59,19.30
2015,06,29,10,00,19.00
2015,06,29,10,01,18.70
2015,06,29,10,02,18.40
2015,06,29,10,03,18.20
2015,06,29,10,04,18.00
2015,06,29,10,05,17.80
2015,06,29,10,06,17.70
2015,06,29,10,07,17.70
2015,06,29,10,08,17.70
2015,06,29,10,09,17.80
2015,06,29,10,10,17.90
2015,06,29,10,11,17.90
2015,06,29,10,12,17.90
2015,06,29,10,13,17.90
2015,06,29,10,14,17.90
2015,06,29,10,15,17.90
2015,06,29,10,16,18.00
2015,06,29,10,17,18.10
2015,06,29,10,18,18.10
2015,06,29,10,19,18.20
2015,06,29,10,20,18.40
2015,06,29,10,21,18.50
2015,06,29,10,22,18.70
2015,06,29,10,23,18.90
2015,06,29,10,24,19.10
2015,06,29,10,25,19.20
2015,06,29,10,26,19.30
2015,06,29,10,27,19.40
2015,06,29,10,28,19.50
2015,06,29,10,29,19.50
2015,06,29,10,30,19.60
2015,06,29,10,31,19.70
2015,06,29,10,32,19.80
2015,06,29,10,33,19.90
2015,06,29,10,34,20.00
2015,06,29,10,35,20.10
2015,06,29,10,36,20.20
2015,06,29,10,37,20.40
2015,06,29,10,38,20.50
2015,06,29,10,39,20.70
2015,06,29,10,40,20.90
2015,06,29,10,41,21.00
2015,06,29,10,42,21.00
2015,06,29,10,43,20.90
2015,06,29,10,44,20.70
2015,06,29,10,45,20.60
2015,06,29,10,46,20.40
2015,06,29,10,47,20.30
2015,06,29,10,48,20.10
2015,06,29,10,49,20.00
2015,06,29,10,50,19.90
2015,06,29,10,51,19.80
2015,06,29,10,52,19.60
2015,06,29,10,53,19.60
2015,06,29,10,54,19.60
2015,06,29,10,55,19.60
2015,06,29,10,56,19.60
2015,06,29,10,57,19.60
2015,06,29,10,58,19.50
2015,06,29,10,59,19.50
2015,06,29,11,00,19.30
2015,06,29,11,01,19.20
2015,06,29,11,02,19.00
2015,06,29,11,03,18.90
2015,06,29,11,04,18.70
2015,06,29,11,05,18.50
2015,06,29,11,06,18.30
2015,06,29,11,07,18.10
2015,06,29,11,08,18.00
2015,06,29,11,09,18.00
2015,06,29,11,10,17.90
2015,06,29,11,11,17.90
2015,06,29,11,12,17.90
2015,06,29,11,13,17.90
2015,06,29,11,14,17.80
2015,06,29,11,15,17.80
2015,06,29,11,16,17.90
2015,06,29,11,17,17.90
2015,06,29,11,18,17.90
2015,06,29,11,19,17.90
2015,06,29,11,20,17.90
2015,06,29,11,21,17.90
2015,06,29,11,22,17.90
2015,06,29,11,23,17.90
2015,06,29,11,24,17.90
2015,06,29,11,25,17.90
2015,06,29,11,26,17.90
2015,06,29,11,27,18.00
2015,06,29,11,28,18.00
2015,06,29,11,29,18.10
2015,06,29,11,30,18.20
2015,06,29,11,31,18.20
2015,06,29,11,32,18.10
2015,06,29,11,33,18.10
2015,06,29,11,34,17.90
2015,06,29,11,35,17.80
2015,06,29,11,36,17.80
2015,06,29,11,37,17.70
2015,06,29,11,38,17.70
2015,06,29,11,39,17.60
2015,06,29,11,40,17.70
2015,06,29,11,41,17.80
2015,06,29,11,42,17.90
2015,06,29,11,43,18.00
2015,06,29,11,44,18.20
2015,06,29,11,45,18.50
2015,06,29,11,46,18.70
2015,06,29,11,47,19.00
2015,06,29,11,48,19.20
2015,06,29,11,49,19.40
2015,06,29,11,50,19.60
2015,06,29,11,51,19.70
2015,06,29,11,52,19.80
2015,06,29,11,53,20.00
2015,06,29,11,54,20.10
2015,06,29,11,55,20.10
2015,06,29,11,56,20.10
2015,06,29,11,57,20.10
2015,06,29,11,58,20.00
2015,06,29,11,59,19.80
2015,06,29,12,00,19.60
2015,06,29,12,01,19.50
2015,06,29,12,02,19.30
2015,06,29,12,03,19.20
2015,06,29,12,04,19.20
2015,06,29,12,05,19.10
2015,06,29,12,06,18.90
2015,06,29,12,07,18.90
2015,06,29,12,08,18.80
2015,06,29,12,09,18.80
2015,06,29,12,10,18.80
2015,06,29,12,11,18.80
2015,06,29,12,12,18.80
2015,06,29,12,13,18.80
2015,06,29,12,14,18.80
2015,06,29,12,15,18.80
2015,06,29,12,16,18.80
2015,06,29,12,17,18.70
2015,06,29,12,18,18.60
2015,06,29,12,19,18.50
2015,06,29,12,20,18.50
2015,06,29,12,21,18.50
2015,06,29,12,22,18.50
2015,06,29,12,23,18.40
2015,06,29,12,24,18.40
2015,06,29,12,25,18.40
2015,06,29,12,26,18.40
2015,06,29,12,27,18.40
2015,06,29,12,28,18.40
2015,06,29,12,29,18.40
2015,06,29,12,30,18.30
2015,06,29,12,31,18.20
2015,06,29,12,32,18.00
2015,06,29,12,33,17.90
2015,06,29,12,34,17.80
2015,06,29,12,35,17.70
2015,06,29,12,36,17.70
2015,06,29,12,37,17.70
2015,06,29,12,38,17.80
2015,06,29,12,39,17.80
2015,06,29,12,40,18.00
2015,06,29,12,41,18.20
2015,06,29,12,42,18.50
2015,06,29,12,43,18.70
2015,06,29,12,44,18.80
2015,06,29,12,45,19.00
2015,06,29,12,46,19.10
2015,06,29,12,47,19.20
2015,06,29,12,48,19.20
2015,06,29,12,49,19.20
2015,06,29,12,50,19.20
2015,06,29,12,51,19.30
2015,06,29,12,52,19.40
2015,06,29,12,53,19.60
2015,06,29,12,54,19.70
2015,06,29,12,55,19.90
2015,06,29,12,56,20.20
2015,06,29,12,57,20.40
2015,06,29,12,58,20.60
2015,06,29,12,59,20.60
2015,06,29,13,00,20.50
2015,06,29,13,01,20.40
2015,06,29,13,02,20.30
2015,06,29,13,03,20.30
2015,06,29,13,04,20.30
2015,06,29,13,05,20.20
2015,06,29,13,06,20.20
2015,06,29,13,07,20.20
2015,06,29,13,08,20.20
2015,06,29,13,09,20.20
2015,06,29,13,10,20.30
2015,06,29,13,11,20.60
2015,06,29,13,12,20.80
2015,06,29,13,13,21.10
2015,06,29,13,14,21.40
2015,06,29,13,15,21.60
2015,06,29,13,16,22.00
2015,06,29,13,17,22.30
2015,06,29,13,18,22.50
2015,06,29,13,19,22.50
2015,06,29,13,20,22.60
2015,06,29,13,21,22.60
2015,06,29,13,22,22.70
2015,06,29,13,23,22.80
2015,06,29,13,24,22.80
2015,06,29,13,25,22.90
2015,06,29,13,26,23.10
2015,06,29,13,27,23.30
2015,06,29,13,28,23.50
2015,06,29,13,29,23.80
2015,06,29,13,30,24.10
2015,06,29,13,31,24.40
2015,06,29,13,32,24.60
2015,06,29,13,33,24.80
2015,06,29,13,34,25.00
2015,06,29,13,35,25.10
2015,06,29,13,36,25.20
2015,06,29,13,37,25.30
2015,06,29,13,38,25.30
2015,06,29,13,39,25.30
2015,06,29,13,40,25.30
2015,06,29,13,41,25.40
2015,06,29,13,42,25.40
2015,06,29,13,43,25.50
2015,06,29,13,44,25.50
2015,06,29,13,45,25.60
2015,06,29,13,46,25.60
2015,06,29,13,47,25.70
2015,06,29,13,48,25.70
2015,06,29,13,49,25.80
2015,06,29,13,50,25.80
2015,06,29,13,51,25.90
2015,06,29,13,52,26.10
2015,06,29,13,53,26.20
2015,06,29,13,54,26.30
2015,06,29,13,55,26.50
2015,06,29,13,56,26.60
2015,06,29,13,57,26.70
2015,06,29,13,58,26.80
2015,06,29,13,59,26.80
2015,06,29,14,00,26.90
2015,06,29,14,01,27.00
2015,06,29,14,02,27.10
2015,06,29,14,03,27.20
2015,06,29,14,04,27.30
2015,06,29,14,05,27.40
2015,06,29,14,06,27.50
2015,06,29,14,07,27.50
2015,06,29,14,08,27.60
2015,06,29,14,09,27.70
2015,06,29,14,10,27.70
2015,06,29,14,11,27.80
2015,06,29,14,12,27.80
2015,06,29,14,13,27.80
2015,06,29,14,14,27.80
2015,06,29,14,15,27.80
2015,06,29,14,16,27.90
2015,06,29,14,17,28.00
2015,06,29,14,18,28.10
2015,06,29,14,19,28.10
2015,06,29,14,20,28.10
2015,06,29,14,21,28.10
2015,06,29,14,22,28.10
2015,06,29,14,23,28.10
2015,06,29,14,24,28.10
2015,06,29,14,25,28.10
2015,06,29,14,26,28.00
2015,06,29,14,27,28.00
2015,06,29,14,28,28.00
2015,06,29,14,29,28.00
2015,06,29,14,30,28.00
2015,06,29,14,31,28.10
2015,06,29,14,32,28.10
2015,06,29,14,33,28.20
2015,06,29,14,34,28.40
2015,06,29,14,35,28.40
2015,06,29,14,36,28.40
2015,06,29,14,37,28.30
2015,06,29,14,38,28.30
2015,06,29,14,39,28.30
2015,06,29,14,40,28.20
2015,06,29,14,41,28.20
2015,06,29,14,42,28.20
2015,06,29,14,43,28.10
2015,06,29,14,44,28.10
2015,06,29,14,45,28.20
2015,06,29,14,46,28.20
2015,06,29,14,47,28.20
2015,06,29,14,48,28.20
2015,06,29,14,49,28.20
2015,06,29,14,50,28.30
2015,06,29,14,51,28.30
2015,06,29,14,52,28.30
2015,06,29,14,53,28.30
2015,06,29,14,54,28.30
2015,06,29,14,55,28.30
2015,06,29,14,56,28.20
2015,06,29,14,57,28.20
2015,06,29,14,58,28.20
2015,06,29,14,59,28.20
2015,06,29,15,00,28.20
2015,06,29,15,01,28.20
2015,06,29,15,02,28.10
2015,06,29,15,03,28.00
2015,06,29,15,04,28.00
2015,06,29,15,05,28.00
2015,06,29,15,06,27.90
2015,06,29,15,07,27.90
2015,06,29,15,08,27.90
2015,06,29,15,09,27.90
2015,06,29,15,10,27.90
2015,06,29,15,11,27.90
2015,06,29,15,12,27.90
2015,06,29,15,13,28.00
2015,06,29,15,14,28.00
2015,06,29,15,15,28.00
2015,06,29,15,16,27.90
2015,06,29,15,17,27.90
2015,06,29,15,18,27.90
2015,06,29,15,19,27.90
2015,06,29,15,20,27.90
2015,06,29,15,21,27.90
2015,06,29,15,22,27.90
2015,06,29,15,23,27.90
2015,06,29,15,24,27.90
2015,06,29,15,25,27.80
2015,06,29,15,26,27.70
2015,06,29,15,27,27.60
2015,06,29,15,28,27.60
2015,06,29,15,29,27.50
2015,06,29,15,30,27.40
2015,06,29,15,31,27.20
2015,06,29,15,32,27.10
2015,06,29,15,33,26.80
2015,06,29,15,34,26.60
2015,06,29,15,35,26.30
2015,06,29,15,36,26.10
2015,06,29,15,37,26.00
2015,06,29,15,38,25.90
2015,06,29,15,39,25.80
2015,06,29,15,40,25.90
2015,06,29,15,41,25.90
2015,06,29,15,42,26.00
2015,06,29,15,43,26.10
2015,06,29,15,44,26.20
2015,06,29,15,45,26.20
2015,06,29,15,46,26.30
2015,06,29,15,47,26.30
2015,06,29,15,48,26.40
2015,06,29,15,49,26.40
2015,06,29,15,50,26.40
2015,06,29,15,51,26.40
2015,06,29,15,52,26.30
2015,06,29,15,53,26.30
2015,06,29,15,54,26.30
2015,06,29,15,55,26.30
2015,06,29,15,56,26.30
2015,06,29,15,57,26.20
2015,06,29,15,58,26.10
2015,06,29,15,59,26.10
2015,06,29,16,00,26.10
2015,06,29,16,01,26.00
2015,06,29,16,02,26.00
2015,06,29,16,03,25.90
2015,06,29,16,04,25.80
2015,06,29,16,05,25.70
2015,06,29,16,06,25.70
2015,06,29,16,07,25.60
2015,06,29,16,08,25.60
2015,06,29,16,09,25.60
2015,06,29,16,10,25.70
2015,06,29,16,11,25.80
2015,06,29,16,12,25.90
2015,06,29,16,13,26.00
2015,06,29,16,14,26.10
2015,06,29,16,15,26.30
2015,06,29,16,16,26.50
2015,06,29,16,17,26.60
2015,06,29,16,18,26.80
2015,06,29,16,19,26.90
2015,06,29,16,20,27.10
2015,06,29,16,21,27.20
2015,06,29,16,22,27.30
2015,06,29,16,23,27.30
2015,06,29,16,24,27.30
2015,06,29,16,25,27.40
2015,06,29,16,26,27.40
2015,06,29,16,27,27.40
2015,06,29,16,28,27.40
2015,06,29,16,29,27.30
2015,06,29,16,30,27.40
2015,06,29,16,31,27.40
2015,06,29,16,32,27.40
2015,06,29,16,33,27.50
2015,06,29,16,34,27.50
2015,06,29,16,35,27.50
2015,06,29,16,36,27.40
2015,06,29,16,37,27.40
2015,06,29,16,38,27.50
2015,06,29,16,39,27.40
2015,06,29,16,40,27.40
2015,06,29,16,41,27.30
2015,06,29,16,42,27.30
2015,06,29,16,43,27.30
2015,06,29,16,44,27.30
2015,06,29,16,45,27.20
2015,06,29,16,46,27.20
2015,06,29,16,47,27.20
2015,06,29,16,48,27.30
2015,06,29,16,49,27.30
2015,06,29,16,50,27.40
2015,06,29,16,51,27.50
2015,06,29,16,52,27.60
2015,06,29,16,53,27.60
2015,06,29,16,54,27.70
2015,06,29,16,55,27.80
2015,06,29,16,56,27.80
2015,06,29,16,57,27.80
2015,06,29,16,58,27.90
2015,06,29,16,59,27.90
2015,06,29,17,00,28.00
2015,06,29,17,01,28.10
2015,06,29,17,02,28.20
2015,06,29,17,03,28.30
2015,06,29,17,04,28.30
2015,06,29,17,05,28.40
2015,06,29,17,06,28.30
2015,06,29,17,07,28.30
2015,06,29,17,08,28.40
2015,06,29,17,09,28.40
2015,06,29,17,10,28.30
2015,06,29,17,11,28.20
2015,06,29,17,12,28.20
2015,06,29,17,13,28.10
2015,06,29,17,14,28.10
2015,06,29,17,15,28.10
2015,06,29,17,16,28.10
2015,06,29,17,17,28.00
2015,06,29,17,18,28.00
2015,06,29,17,19,27.90